Date String (YYYY-MM-DD hh:mm:ss) UTC,Instrument flags,Ambient pressure (hPa),Sample flow (lpm),Bypass flow (lpm),Sample temperature (°C),Ambient temperature (°C),ASC tube jacket temperature (°C),LED temperature (°C),Box temperature (°C),Sample RH (%),Span deviation,Mass concentration (μg/m³),Mass concentration (μg/m³),Mass concentration (μg/m³)
DateTimeUTC,F1_M11,P_M11,Q1_M11,Q2_M11,T1_M11,T2_M11,T3_M11,T4_M11,T5_M11,U1_M11,ZSPAN_M11,X0_M11,X2_M11,X1_M11
2022-03-16 16:00:00,,0823.2,4.99,0.00,25.0,24.3,00.0,34.0,26.8,10.7,0000.0,0008.44,0003.59,0002.48
2022-03-16 16:01:00,,0823.3,5.01,0.00,25.0,24.3,00.0,34.0,26.8,10.7,0000.0,0008.58,0003.61,0002.47
2022-03-16 16:02:00,,0823.3,5.00,0.00,25.0,24.2,00.0,34.0,26.8,10.6,0000.0,0008.97,0003.61,0002.48
2022-03-16 16:03:00,,0823.2,5.00,0.00,25.0,24.2,00.0,34.0,26.7,10.7,0000.0,0009.21,0003.63,0002.47
2022-03-16 16:04:00,,0823.2,5.01,0.00,25.0,24.2,00.0,34.0,26.7,10.7,0000.0,0009.94,0003.61,0002.47
2022-03-16 16:05:00,,0823.2,5.00,0.00,24.9,24.2,00.0,34.0,26.7,10.7,0000.0,0010.20,0003.59,0002.49
2022-03-16 16:06:00,,0823.2,4.99,0.00,24.9,24.1,00.0,34.0,26.7,10.8,0000.0,0010.40,0003.63,0002.53
2022-03-16 16:07:00,,0823.3,5.00,0.00,24.9,24.1,00.0,34.0,26.6,10.9,0000.0,0011.23,0003.73,0002.56
2022-03-16 16:08:00,,0823.3,5.00,0.00,24.9,24.1,00.0,34.0,26.6,11.0,0000.0,0012.02,0003.80,0002.59
2022-03-16 16:09:00,,0823.2,5.01,0.00,24.9,24.0,00.0,34.0,26.6,11.0,0000.0,0012.54,0003.87,0002.62
2022-03-16 16:10:00,,0823.2,5.01,0.00,24.8,24.0,00.0,33.9,26.6,11.0,0000.0,0013.14,0003.87,0002.64
2022-03-16 16:11:00,,0823.2,5.00,0.00,24.8,23.9,00.0,33.9,26.5,11.0,0000.0,0014.48,0003.88,0002.67
2022-03-16 16:12:00,,0823.2,5.00,0.00,24.8,23.9,00.0,33.9,26.5,11.0,0000.0,0015.00,0003.87,0002.67
2022-03-16 16:13:00,,0823.2,5.00,0.00,24.8,23.8,00.0,33.9,26.5,11.0,0000.0,0014.71,0003.88,0002.68
2022-03-16 16:14:00,,0823.3,5.00,0.00,24.7,23.8,00.0,33.9,26.5,11.2,0000.0,0014.41,0003.90,0002.70
2022-03-16 16:15:00,,0823.2,5.00,0.00,24.7,23.8,00.0,33.9,26.4,11.0,0000.0,0014.23,0003.96,0002.71
2022-03-16 16:16:00,,0823.2,5.00,0.00,24.7,23.8,00.0,33.8,26.4,11.1,0000.0,0014.73,0003.96,0002.70
2022-03-16 16:17:00,,0823.1,5.00,0.00,24.7,23.9,00.0,33.8,26.5,11.2,0000.0,0014.68,0003.95,0002.68
2022-03-16 16:18:00,,0823.1,5.00,0.00,24.7,23.9,00.0,33.8,26.5,11.2,0000.0,0014.07,0003.93,0002.67
2022-03-16 16:19:00,,0823.1,4.98,0.00,24.7,23.9,00.0,33.8,26.5,11.2,0000.0,0013.63,0003.94,0002.67
2022-03-16 16:20:00,,0823.1,5.01,0.00,24.7,24.0,00.0,33.8,26.5,11.3,0000.0,0013.50,0003.90,0002.67
2022-03-16 16:21:00,,0823.1,5.00,0.00,24.7,24.0,00.0,33.8,26.5,11.2,0000.0,0013.98,0003.97,0002.70
2022-03-16 16:22:00,,0823.1,5.00,0.00,24.7,23.9,00.0,33.8,26.5,11.1,0000.0,0013.03,0004.01,0002.72
2022-03-16 16:23:00,,0823.2,4.98,0.00,24.7,23.9,00.0,33.8,26.4,11.2,0000.0,0013.37,0004.04,0002.76
2022-03-16 16:24:00,,0823.2,5.00,0.00,24.7,23.9,00.0,33.8,26.4,11.1,0000.0,0013.78,0004.04,0002.79
2022-03-16 16:25:00,,0823.2,5.00,0.00,24.7,23.9,00.0,33.8,26.4,11.3,0000.0,0014.97,0004.05,0002.81
2022-03-16 16:26:00,,0823.2,5.00,0.00,24.6,23.8,00.0,33.7,26.3,11.3,0000.0,0014.72,0004.04,0002.85
2022-03-16 16:27:00,,0823.2,5.00,0.00,24.6,23.7,00.0,33.7,26.3,11.4,0000.0,0014.39,0004.06,0002.87
2022-03-16 16:28:00,,0823.2,5.00,0.00,24.6,23.7,00.0,33.7,26.3,11.5,0000.0,0014.64,0004.08,0002.91
2022-03-16 16:29:00,,0823.2,5.00,0.00,24.6,23.7,00.0,33.7,26.3,11.5,0000.0,0015.10,0004.10,0002.94
2022-03-16 16:30:00,,0823.2,5.00,0.00,24.6,23.7,00.0,33.7,26.3,11.6,0000.0,0015.37,0004.07,0002.95
2022-03-16 16:31:00,,0823.2,5.00,0.00,24.5,23.7,00.0,33.7,26.3,11.7,0000.0,0015.07,0004.10,0002.98
2022-03-16 16:32:00,,0823.2,5.00,0.00,24.5,23.6,00.0,33.7,26.2,11.3,0000.0,0013.84,0004.07,0002.98
2022-03-16 16:33:00,,0823.2,4.99,0.00,24.5,23.6,00.0,33.6,26.2,11.4,0000.0,0013.97,0004.07,0003.00
2022-03-16 16:34:00,,0823.2,5.00,0.00,24.5,23.5,00.0,33.6,26.1,11.6,0000.0,0014.32,0004.10,0003.03
2022-03-16 16:35:00,,0823.1,5.00,0.00,24.4,23.5,00.0,33.6,26.1,11.7,0000.0,0014.12,0004.10,0003.04
2022-03-16 16:36:00,,0823.1,5.00,0.00,24.4,23.5,00.0,33.6,26.1,11.8,0000.0,0013.32,0004.16,0003.06
2022-03-16 16:37:00,,0823.1,5.00,0.00,24.4,23.5,00.0,33.6,26.1,11.6,0000.0,0014.33,0004.16,0003.06
2022-03-16 16:38:00,,0823.1,5.01,0.00,24.4,23.4,00.0,33.5,26.0,11.6,0000.0,0015.23,0004.14,0003.06
2022-03-16 16:39:00,,0823.1,5.00,0.00,24.3,23.4,00.0,33.5,26.0,11.8,0000.0,0015.79,0004.12,0003.05
2022-03-16 16:40:00,,0823.1,5.00,0.00,24.3,23.4,00.0,33.5,26.0,12.0,0000.0,0015.95,0004.14,0003.06
2022-03-16 16:41:00,,0823.1,5.01,0.00,24.3,23.4,00.0,33.5,26.0,11.9,0000.0,0016.53,0004.18,0003.07
2022-03-16 16:42:00,,0823.1,5.01,0.00,24.3,23.4,00.0,33.5,26.0,12.0,0000.0,0016.89,0004.18,0003.09
2022-03-16 16:43:00,,0823.1,5.00,0.00,24.3,23.4,00.0,33.4,26.0,11.9,0000.0,0017.09,0004.21,0003.11
2022-03-16 16:44:00,,0823.1,4.99,0.00,24.2,23.4,00.0,33.4,25.9,12.0,0000.0,0017.18,0004.19,0003.14
2022-03-16 16:45:00,,0823.1,5.00,0.00,24.2,23.4,00.0,33.4,25.9,12.1,0000.0,0016.56,0004.20,0003.15
2022-03-16 16:46:00,,0823.1,5.00,0.00,24.2,23.4,00.0,33.4,25.9,12.3,0000.0,0016.23,0004.23,0003.15
2022-03-16 16:47:00,,0823.1,5.00,0.00,24.2,23.4,00.0,33.4,26.0,12.3,0000.0,0016.86,0004.23,0003.15
2022-03-16 16:48:00,,0823.1,4.99,0.00,24.2,23.4,00.0,33.4,25.9,12.3,0000.0,0016.18,0004.19,0003.17
2022-03-16 16:49:00,,0823.1,4.99,0.00,24.2,23.3,00.0,33.4,25.9,12.2,0000.0,0014.70,0004.24,0003.18
2022-03-16 16:50:00,,0823.0,5.00,0.00,24.2,23.3,00.0,33.3,25.9,12.3,0000.0,0013.64,0004.26,0003.21
2022-03-16 16:51:00,,0823.0,5.00,0.00,24.2,23.3,00.0,33.3,25.8,12.3,0000.0,0013.35,0004.24,0003.22
2022-03-16 16:52:00,,0823.0,5.01,0.00,24.1,23.3,00.0,33.3,25.8,12.4,0000.0,0013.51,0004.22,0003.23
2022-03-16 16:53:00,,0823.0,4.99,0.00,24.1,23.3,00.0,33.3,25.8,12.4,0000.0,0012.65,0004.22,0003.24
2022-03-16 16:54:00,,0823.0,5.01,0.00,24.1,23.3,00.0,33.3,25.8,12.6,0000.0,0012.39,0004.21,0003.23
2022-03-16 16:55:00,,0823.0,5.00,0.00,24.1,23.3,00.0,33.3,25.8,12.6,0000.0,0012.67,0004.18,0003.19
2022-03-16 16:56:00,,0823.0,4.99,0.00,24.1,23.4,00.0,33.3,25.9,12.6,0000.0,0012.05,0004.12,0003.15
2022-03-16 16:57:00,,0823.1,5.00,0.00,24.1,23.4,00.0,33.2,25.9,12.7,0000.0,0011.83,0004.02,0003.12
2022-03-16 16:58:00,,0823.1,5.00,0.00,24.1,23.4,00.0,33.2,25.9,12.7,0000.0,0011.70,0003.97,0003.06
2022-03-16 16:59:00,,0823.0,5.00,0.00,24.1,23.5,00.0,33.2,25.9,12.7,0000.0,0011.55,0003.90,0002.97
